This demonstration page uses our WeatherBlox Daily Observations layout. Learn more.

Hourly Observations for August 29, 2019

Temp ( °F °C ) Dew Point ( °F °C ) Humidity (%) Winds ( mph kmh ) Pressure ( in mb ) Visibility ( mi km ) Precip ( " mm )
12:15 am 00:15 Clear 69 20.6 66 18.7 89 89 S 3 6 29.88 1012 10 16.09344 0 0
2:15 am 02:15 Clear 67 19.5 65 18.5 94 94 S 5 7 29.91 1013 10 16.09344 0 0
2:55 am 02:55 Clear 66 19.1 65 18.2 95 95 S 5 7 29.88 1012 10 16.09344 0 0
3:15 am 03:15 Clear 66 19 65 18.1 95 95 SSE 5 7 29.88 1012 10 16.09344 0 0
3:35 am 03:35 Clear 66 18.8 65 18.1 96 96 SSE 6 9 29.88 1012 10 16.09344 0 0
3:55 am 03:55 Clear 65 18.6 64 18 96 96 S 7 11 29.88 1012 10 16.09344 0 0
4:15 am 04:15 Clear 66 19 65 18.2 95 95 Calm 29.88 1012 10 16.09344 0 0
4:35 am 04:35 Clear 65 18.5 64 17.7 95 95 Calm 29.88 1012 10 16.09344 0 0
4:55 am 04:55 Clear 65 18.1 64 17.7 98 98 Calm 29.88 1012 10 16.09344 0 0
5:15 am 05:15 Clear 64 17.7 63 17.3 98 98 Calm 29.88 1012 7 11.265408 0 0
5:35 am 05:35 Clear 62 16.4 61 16.2 99 99 NNE 3 6 29.88 1012 7 11.265408 0 0
5:55 am 05:55 Clear 62 16.5 62 16.5 100 100 Calm 29.88 1012 7 11.265408 0 0
6:15 am 06:15 Clear with Mist and Fog 62 16.4 62 16.4 100 100 SSE 5 7 29.88 1012 5 8.04672 0 0
6:35 am 06:35 Clear 62 16.5 61 16.2 98 98 ESE 3 6 29.91 1013 7 11.265408 0 0
6:55 am 06:55 Clear 63 17.1 63 17 99 99 SSE 5 7 29.91 1013 7 11.265408 0 0
7:15 am 07:15 Sunny with Mist and Fog 63 17.2 63 17 99 99 Calm 29.91 1013 5 8.04672 0 0
7:35 am 07:35 Sunny with Mist and Fog 63 17 62 16.8 99 99 S 5 7 29.91 1013 5 8.04672 0 0
7:55 am 07:55 Sunny with Mist and Fog 64 18 64 17.8 99 99 ESE 3 6 29.91 1013 5 8.04672 0 0
8:15 am 08:15 Sunny 66 19.1 65 18.4 96 96 SE 3 6 29.91 1013 7 11.265408 0 0
8:35 am 08:35 Sunny 67 19.6 65 18.6 94 94 SSE 3 6 29.88 1012 7 11.265408 0 0
8:55 am 08:55 Sunny 68 20.2 66 19 93 93 SSE 5 7 29.88 1012 7 11.265408 0 0
9:15 am 09:15 Sunny 70 21.1 67 19.5 91 91 SSE 3 6 29.88 1012 10 16.09344 0 0
9:35 am 09:35 Sunny 71 21.6 67 19.6 88 88 Calm 29.88 1012 10 16.09344 0 0
9:55 am 09:55 Sunny 72 22.3 68 20.1 87 87 Calm 29.88 1012 10 16.09344 0 0
10:15 am 10:15 Sunny 73 22.9 69 20.4 86 86 Calm 29.88 1012 10 16.09344 0 0
10:35 am 10:35 Sunny 74 23.4 69 20.5 84 84 Calm 29.85 1011 10 16.09344 0 0
10:55 am 10:55 Sunny 76 24.6 70 21 80 80 S 3 6 29.85 1011 10 16.09344 0 0
11:15 am 11:15 Sunny 77 25 70 21.1 79 79 Calm 29.85 1011 10 16.09344 0 0
11:35 am 11:35 Sunny 78 25.6 71 21.5 78 78 NE 3 6 29.85 1011 10 16.09344 0 0
11:55 am 11:55 Sunny 78 25.7 71 21.9 80 80 ENE 5 7 29.85 1011 10 16.09344 0 0
12:15 pm 12:15 Sunny 79 26.2 73 22.6 81 81 E 7 11 29.88 1012 10 16.09344 0 0
12:35 pm 12:35 Sunny 80 26.8 74 23.1 80 80 E 8 13 29.83 1010 10 16.09344 0 0
12:55 pm 12:55 Sunny 82 27.5 74 23.6 79 79 E 10 17 29.83 1010 10 16.09344 0 0
1:15 pm 13:15 Sunny 82 27.7 74 23.2 77 77 ESE 10 17 29.83 1010 10 16.09344 0 0
1:35 pm 13:35 Partly Cloudy 83 28.3 74 23.2 74 74 E 10 17 29.83 1010 10 16.09344 0 0
1:55 pm 13:55 Partly Cloudy 83 28.2 73 22.7 72 72 E 13 20 29.83 1010 10 16.09344 0 0
2:15 pm 14:15 Sunny 83 28.2 73 23 73 73 E 12 19 29.83 1010 10 16.09344 0 0
2:35 pm 14:35 Partly Cloudy 84 28.7 75 24 76 76 E 14 22 29.83 1010 10 16.09344 0 0
2:55 pm 14:55 Mostly Cloudy 84 28.7 74 23.4 73 73 E 17 28 29.83 1010 10 16.09344 0 0
3:15 pm 15:15 Mostly Cloudy 83 28.6 75 23.7 75 75 E 12 19 29.83 1010 10 16.09344 0 0
3:35 pm 15:35 Mostly Cloudy 83 28.1 74 23.1 74 74 E 13 20 29.83 1010 10 16.09344 0 0
3:55 pm 15:55 Cloudy 83 28.4 74 23.2 73 73 E 14 22 29.83 1010 10 16.09344 0 0
4:15 pm 16:15 Mostly Cloudy 82 27.7 73 22.5 73 73 E 14 22 29.83 1010 10 16.09344 0 0
4:35 pm 16:35 Partly Cloudy 83 28.5 73 22.6 70 70 E 16 26 29.83 1010 10 16.09344 0 0
4:55 pm 16:55 Mostly Cloudy 80 26.4 71 21.8 76 76 ENE 17 28 29.85 1011 10 16.09344 0 0
5:15 pm 17:15 Cloudy 78 25.5 71 21.5 79 79 ENE 16 26 29.85 1011 10 16.09344 0 0
5:35 pm 17:35 Cloudy 76 24.4 68 20 77 77 NE 12 19 29.88 1012 10 16.09344 0 0
5:55 pm 17:55 Partly Cloudy 75 23.7 67 19.5 77 77 ENE 9 15 29.88 1012 10 16.09344 0 0
6:15 pm 18:15 Mostly Cloudy 74 23.3 65 18.2 73 73 ENE 9 15 29.94 1014 10 16.09344 0 0
6:35 pm 18:35 Cloudy 73 22.7 63 17.4 72 72 ESE 16 26 29.91 1013 10 16.09344 0 0
6:55 pm 18:55 Cloudy 71 21.8 63 17.2 75 75 ESE 22 35 29.91 1013 10 16.09344 0 0
7:15 pm 19:15 Partly Cloudy 71 21.6 63 17 75 75 NE 6 9 29.94 1014 10 16.09344 0 0
7:35 pm 19:35 Partly Cloudy with Nearby Thunderstorms 70 21.3 62 16.5 74 74 NW 6 9 29.94 1014 10 16.09344 0 0
7:55 pm 19:55 Partly Cloudy 70 21.2 61 16 72 72 NE 18 30 29.91 1013 10 16.09344 0 0
8:15 pm 20:15 Sunny 69 20.7 60 15.8 74 74 NE 12 19 29.91 1013 10 16.09344 0 0
8:35 pm 20:35 Clear 68 20.1 62 16.4 79 79 NNE 8 13 29.97 1015 10 16.09344 0 0
8:55 pm 20:55 Mostly Cloudy 67 19.5 60 15.4 77 77 NNE 9 15 29.97 1015 10 16.09344 0 0
9:15 pm 21:15 Partly Cloudy 66 19.1 59 15.1 78 78 NNE 10 17 29.97 1015 10 16.09344 0 0
9:35 pm 21:35 Clear 67 19.5 57 13.9 70 70 NE 13 20 29.97 1015 10 16.09344 0 0
9:55 pm 21:55 Clear 67 19.4 54 12.4 64 64 NE 15 24 29.97 1015 10 16.09344 0 0
10:15 pm 22:15 Clear 66 18.9 53 11.8 64 64 ENE 12 19 29.97 1015 10 16.09344 0 0
10:35 pm 22:35 Clear 65 18.4 53 11.9 66 66 ENE 12 19 30 1016 10 16.09344 0 0
10:55 pm 22:55 Clear 64 17.7 53 11.9 69 69 NE 9 15 30 1016 10 16.09344 0 0
11:15 pm 23:15 Clear 62 16.9 54 12.1 74 74 NE 6 9 30.03 1017 10 16.09344 0 0
11:35 pm 23:35 Clear 62 16.7 53 11.9 73 73 ENE 7 11 30.03 1017 10 16.09344 0 0
11:55 pm 23:55 Clear 61 16 53 11.9 77 77 NE 7 11 30.03 1017 10 16.09344 0 0

Powered by AerisWeather